Regional Weather Roundup
Issued by NWS

Home | Current Version | Previous Version | Graphics & Text | Print | Product List | Glossary On
Versions: 1 2 3 4 5 6 7 8 9 10 11 12 13 14 15 16 17 18 19 20 21 22 23 24 25 26 27 28 29 30 31 32 33 34 35 36 37 38 39 40 41 42 43 44 45 46 47 48 49 50
237
ASUS45 KBOU 252110
RWRCO

WEATHER ROUNDUP FOR COLORADO
NATIONAL WEATHER SERVICE DENVER/BOULDER CO
300 PM MDT WED APR 25 2018

NOTE: "FAIR" INDICATES FEW OR NO CLOUDS BELOW 12000 FEET WITH NO
SIGNIFICANT WEATHER AND/OR OBSTRUCTIONS TO VISIBILITY.

COZ001>005-013-030-031-252200-
...NORTHWEST COLORADO...

CITY           SKY/WX    TMP DP  RH WIND       PRES   REMARKS
CRAIG          FAIR      61  25  25 CALM      30.21F
HAYDEN         FAIR      57  19  22 VRB5      30.23F
MEEKER         FAIR      64  13  13 NW9       30.21F
RANGELY        FAIR      63  20  19 W3        30.21F
RABBIT EARS PA FAIR      43  10  26 W7G20     30.37S
STEAMBOAT SPGS FAIR      57  11  15 NE3       30.22F
WALDEN         FAIR      57   3  11 W8        30.25F
$$

COZ006>008-011-252200-
...WEST CENTRAL VALLEYS...

CITY           SKY/WX    TMP DP  RH WIND       PRES   REMARKS
GRAND JUNCTION FAIR      67  18  15 SW7       30.16F
MONTROSE       FAIR      65  10  11 NW8       30.19F
EAGLE          FAIR      64  -6   6 W6        30.21F
RIFLE          FAIR      66   9  10 VRB3      30.17F
DELTA          FAIR      72   2   6 N6        30.16F
NUCLA          FAIR      70  -4   5 SW6       30.21F
$$

COZ017>023-064>068-252200-
...SOUTHWEST COLORADO...

CITY           SKY/WX    TMP DP  RH WIND       PRES   REMARKS
DURANGO        FAIR      68   6   9 VRB5      30.18F
CORTEZ         FAIR      69  -5   5 VRB3      30.18F
PAGOSA SPRINGS FAIR      66  -4   6 S5        30.22F
TELLURIDE      FAIR      59   8  12 W15G21    30.30F
WOLF CREEK PAS FAIR      43   5  21 SW13G18   30.47F
$$

COZ009-010-012-014-032>034-037-058>063-252200-
...CENTRAL COLORADO...

CITY           SKY/WX    TMP DP  RH WIND       PRES   REMARKS
ASPEN          FAIR      63   0   8 N12G17    30.21F
BUENA VISTA    FAIR      60   6  12 E5        30.23F
COPPER MTN     NOT AVBL
BERTHOUD PASS  FAIR      32  21  64 NW17      30.41F WCI  21
COTTONWOOD PAS FAIR      59  10  14 SE10      30.31F
GUNNISON       FAIR      62 -11   5 SW8       30.22F
GRANBY         FAIR      56  15  19 SW5       30.26F
KREMMLING      FAIR      64   1   8 CALM      30.24F
LEADVILLE      FAIR      52  -3  10 VRB6G17   30.29F
MONARCH PASS   FAIR      45   0  15 W18G26    30.52F
SALIDA         FAIR      64  -1   7 SE3       30.29F
SUNLIGHT       FAIR      43  12  28 W5        30.42F
WILKERSON PASS FAIR      43   9  24 CALM      30.41F
$$

COZ069>075-252200-
...SAN LUIS VALLEY/SANGRE DE CRISTO MOUNTAINS...

CITY           SKY/WX    TMP DP  RH WIND       PRES   REMARKS
ALAMOSA        FAIR      60  -5   7 VRB5      30.24F
DEL NORTE      FAIR      61  -7   6 SE5       30.24F
LA VETA PASS   FAIR      50  21  32 N8        30.47S
SAGUACHE       NOT AVBL
$$

COZ035-036-038>040-252200-
...NORTHERN COLORADO FRONT RANGE...

CITY           SKY/WX    TMP DP  RH WIND       PRES   REMARKS
DENVER INTL AP FAIR      62  21  20 VRB3      30.15F
AURORA         MOSUNNY   62  14  15 CALM      30.16F
FRONT RANGE AP SUNNY     63  16  16 SW3       30.17F
ERIE MUNI ARPT FAIR     N/A N/A N/A MISG        N/A
BOULDER MUN AP FAIR      63  27  25 E7        30.14F
CENTENNIAL     FAIR      61  12  14 CALM      30.16F
BROOMFIELD     SUNNY     63  19  19 SE6       30.17F
FORT COLLINS   FAIR      63  27  25 S9        30.14F
LONGMONT       FAIR      66  29  25 E8        30.15F
$$

COZ041-046-047-076>085-087-088-252200-
...PIKES PEAK/PALMER DIVIDE AND SOUTHERN FOOTHILLS...

CITY           SKY/WX    TMP DP  RH WIND       PRES   REMARKS
COLO. SPRINGS  FAIR      60  26  27 VRB7      30.21F
A. F. ACADEMY  FAIR      61  24  24 SW8       30.19F
SCHRIEVER AFB  NOT AVBL
CHEYENNE MTN   FAIR      56  32  40 S10       30.17F
ELLICOTT         N/A    N/A N/A N/A VRB3      30.19F
FALCON         FAIR      62  13  15 W3        30.22F
FORT CARSON      N/A     60  30  31 SE5       30.18F
LIMON          FAIR      58  21  24 VRB6      30.18F
MONUMENT HILL  FAIR      55  12  18 W7        30.24F
CANON CITY     FAIR      68  32  26 SE6       30.16F
WALSENBURG     NOT AVBL
TRINIDAD       FAIR      64  17  16 VRB5      30.21F
$$

COZ042>045-048>051-090-091-252200-
...NORTHEAST COLORADO...

CITY           SKY/WX    TMP DP  RH WIND       PRES   REMARKS
GREELEY ARPT   FAIR      64  24  21 S12       30.14F
AKRON          FAIR      58  28  32 MISG      30.16F
BURLINGTON     NOT AVBL
WRAY           FAIR      61  30  31 NW7       30.17F
YUMA           FAIR      55  21  26 N6        30.15F
STERLING       NOT AVBL
HOLYOKE        FAIR      63  32  31 NW7       30.15F
FORT MORGAN    FAIR      63  18  17 S5        30.15F
$$

COZ086-089-092>099-252200-
...SOUTHEAST COLORADO...

CITY           SKY/WX    TMP DP  RH WIND       PRES   REMARKS
PUEBLO         FAIR      62  29  28 S6        30.17F
LA JUNTA       FAIR      59  34  39 MISG      30.19F
LAMAR          FAIR      62  31  31 NW9G17    30.17F
SPRINGFIELD      N/A     57  32  38 NW12G22   30.19F
$$




USA.gov is the U.S. government's official web portal to all federal, state and local government web resources and services.